Flag for U.S.A. Weather past 2 weeks in Idaho Falls, Idaho, U.S.A.

Now
47 °F

Overcast.


Feels Like: 42 °F
Forecast: 37 / 54 °F
Wind: 10 mph from Southwest

Location: Fanning Field

Current Time: Apr 26, 2015 at 3:56:50 PM

Latest Report: Apr 26, 2015 at 2:53 PM


Visibility: 10 mi

Pressure: 30.02 "Hg

Humidity: 66%

Dew point: 36 °F

Location of Idaho FallsLocation

Historic Weather in Idaho Falls — Graph

°F

Idaho Falls temperature yesterday

Maximum temperature yesterday: 57 °F (at 4:53 PM)
Minimum temperature yesterday: 38 °F (at 4:53 AM)
Average temperature yesterday: 47 °F

Past Weeks' High & Low Weather Summary

 TemperatureHumidityPressure
High72 °F (Apr 22, 3:53 PM)96% (Apr 14, 7:53 PM)30.24 "Hg (Apr 14, 7:53 PM)
Low26 °F (Apr 17, 6:53 AM)11% (Apr 17, 6:53 PM)29.57 "Hg (Apr 24, 1:53 PM)
Average48 °F48%29.91 "Hg
* Reported Apr 11 2:53 PM — Apr 26 2:53 PM, Idaho Falls, Weather by CustomWeather, © 2015

Note: Actual official high and low records may vary slightly from our data, if they occured in-between our weather recording intervals... More about our weather records

Advertising

Idaho Falls weather history for previous 24 hours

 ConditionsComfort  
Time TempWeatherWind HumidityBarometerVisibility
2:53 PM
Sun, Apr 26
47 °FOvercast.10 mph66%30.02 "Hg10 mi
1:53 PM43 °FOvercast.14 mph74%30.02 "Hg10 mi
12:53 PM40 °FOvercast.17 mph80%30.01 "Hg10 mi
11:53 AM38 °FMostly cloudy.21 mph86%30.00 "Hg10 mi
10:53 AM36 °FLight rain. Low clouds.20 mph89%29.96 "Hg10 mi
9:53 AM35 °FLow clouds.20 mph92%29.93 "Hg10 mi
8:53 AM35 °FLight snow. Fog.18 mph92%29.90 "Hg1 mi
7:53 AM35 °FLight rain. Fog.16 mph92%29.86 "Hg5 mi
6:53 AM36 °FLight rain. Fog.17 mph92%29.83 "Hg5 mi
5:53 AM37 °FLight rain. Low clouds.16 mph93%29.79 "Hg10 mi
4:53 AM39 °FLight rain. Low clouds.15 mph93%29.77 "Hg8 mi
3:53 AM40 °FLight rain. Overcast.14 mph89%29.76 "Hg10 mi
2:53 AM42 °FLight rain. Overcast.17 mph79%29.74 "Hg10 mi
1:53 AM43 °FOvercast.14 mph74%29.74 "Hg10 mi
12:53 AM44 °FOvercast.22 mph68%29.73 "Hg10 mi
11:53 PM
Sat, Apr 25
46 °FPassing clouds.17 mph63%29.70 "Hg10 mi
10:53 PM50 °FOvercast.7 mph46%29.70 "Hg10 mi
9:53 PM49 °FOvercast.3 mph52%29.71 "Hg10 mi
8:53 PM50 °FOvercast.6 mph48%29.71 "Hg10 mi
7:53 PM52 °FPartly sunny.7 mph43%29.70 "Hg10 mi
6:53 PM53 °FPassing clouds.10 mph39%29.69 "Hg10 mi
5:53 PM56 °FOvercast.12 mph30%29.69 "Hg10 mi
4:53 PM57 °FPartly sunny.3 mph28%29.69 "Hg10 mi
3:53 PM54 °FPartly sunny.9 mph30%29.72 "Hg10 mi
Weather by CustomWeather, © 2015

See weather overviewHow to use our weather pages